Theta_e
283 283 279 282 284 285 282 282 281 281 284 285 285 288 289 289 287 286 288 289 290 291 295 294 295 294 294 294 295 295 294 293 293 292 292 292 292 292 293 294 293 292 293 295
281 278 283 284 284 284 282 281 279 280 283 284 282 282 283 284 287 288 289 290 290 290 289 290 292 292 293 294 294 295 294 293 293 294 294 293 293 293 293 293 292 292 293 294
278 279 283 283 281 281 281 280 281 280 280 281 279 280 280 282 283 286 287 289 288 287 287 287 287 291 291 292 293 294 294 293 293 294 292 292 290 291 290 290 290 291 292 294
280 282 280 278 279 282 278 283 282 280 279 276 279 274 281 279 281 282 285 286 286 285 284 284 284 285 289 291 293 294 293 292 293 293 292 290 290 287 289 291 290 289 291 293
277 278 278 279 279 282 280 282 281 281 279 278 276 274 280 277 278 282 285 283 283 283 282 282 283 285 289 290 290 291 292 292 292 292 292 291 290 290 287 288 288 289 291 293
281 282 280 280 280 282 283 280 279 278 277 271 276 275 277 278 280 283 282 283 283 283 284 286 287 288 288 288 288 290 290 291 291 291 291 290 290 286 285 285 286 286 288 291
279 279 280 281 279 282 281 277 272 270 269 269 272 273 279 280 280 281 282 281 282 284 285 285 286 285 285 286 286 287 288 288 288 289 289 289 289 287 287 285 286 285 286 287
274 272 278 279 279 279 278 278 273 266 268 271 273 271 277 280 280 281 280 280 281 281 282 284 285 285 285 285 284 285 285 285 286 286 287 287 287 287 287 286 286 286 286 287
273 274 276 277 278 280 278 275 280 274 271 271 273 275 280 279 279 278 278 279 280 280 280 280 281 283 284 284 284 284 284 284 284 285 285 285 285 285 285 285 286 286 286 286
278 272 275 276 278 278 279 280 276 277 269 268 273 272 276 278 277 277 277 278 279 279 279 279 279 279 281 284 284 284 284 284 284 284 284 285 284 285 285 285 284 285 285 286
278 276 272 275 273 275 275 276 277 277 275 271 268 271 277 279 279 278 278 278 279 279 279 279 279 279 279 281 282 283 282 283 283 283 283 284 283 284 284 284 284 285 285 285
280 276 272 272 274 274 273 277 278 274 271 273 272 273 276 276 279 278 277 279 279 279 279 278 278 278 279 279 280 281 282 282 283 283 283 283 283 283 283 283 284 284 284 284
280 275 269 271 272 273 271 274 278 279 276 272 271 274 277 276 276 278 278 279 280 280 278 278 278 278 277 278 278 279 281 282 282 282 282 282 282 283 283 283 283 283 283 283
284 277 270 268 272 272 271 273 275 275 272 272 273 274 276 277 277 279 280 280 280 278 278 277 277 277 277 278 277 278 279 281 281 281 282 282 282 283 283 283 283 282 283 282
276 271 272 271 274 274 274 274 273 272 274 271 274 276 279 278 279 280 281 280 280 278 278 277 276 276 276 277 276 277 277 279 281 281 281 281 282 282 283 282 282 282 282 282
275 269 271 265 274 275 273 273 275 276 275 274 275 275 283 280 281 281 281 281 280 277 277 277 276 276 276 276 276 277 276 277 280 280 280 281 281 281 281 281 281 281 281 281
272 271 270 263 271 273 264 270 273 275 274 274 273 276 279 280 281 281 281 281 279 277 276 275 274 274 275 274 275 274 275 277 279 280 280 280 281 281 280 281 280 280 280 280
265 268 269 264 267 260 270 274 274 273 273 274 273 274 275 278 282 275 274 276 275 274 273 272 272 272 272 272 272 274 277 279 279 279 280 280 280 280 280 279 279 278 279 278
275 271 261 261 262 267 272 271 269 271 270 274 274 275 275 277 278 273 274 273 272 271 272 271 271 271 270 270 271 274 275 276 278 278 278 278 279 278 278 277 275 276 276 276
272 273 268 256 258 255 265 271 274 273 265 274 275 275 274 276 275 272 273 272 272 271 271 270 270 270 269 269 271 272 271 272 270 273 275 275 277 277 275 275 274 274 275 275
253 258 265 266 263 262 270 273 275 267 266 275 275 275 275 272 272 273 274 272 271 271 270 270 269 268 268 269 270 270 270 269 270 271 272 273 274 274 274 273 274 275 276 277
259 255 255 266 264 262 273 273 268 271 275 276 275 275 275 276 277 275 273 272 270 269 269 269 268 267 267 268 268 268 268 269 269 270 272 273 272 274 274 274 275 277 277 277
260 265 261 262 267 272 275 274 276 276 275 276 276 276 277 276 276 277 276 271 269 268 268 267 267 267 267 267 267 267 268 268 269 270 272 273 273 274 276 276 276 275 276 275
261 263 262 263 264 269 271 274 276 277 276 278 278 277 276 274 276 275 275 274 272 269 267 267 266 266 265 266 267 267 267 268 268 268 270 272 272 273 274 275 275 275 274 273
266 265 260 262 267 271 270 270 270 276 275 272 273 273 273 272 273 272 272 272 270 269 267 266 265 265 264 265 266 267 268 268 267 267 268 269 270 270 270 270 271 271 271 272
267 264 264 263 265 267 268 264 265 267 266 266 266 268 270 269 268 268 269 269 268 267 266 265 264 264 264 264 264 265 267 267 267 267 267 268 269 270 271 271 272 276 276 276
Wind_Speed
4 5 12 26 14 14 1 10 9 2 6 6 14 20 14 9 7 9 13 12 13 15 16 9 9 11 12 12 14 16 16 16 13 9 8 5 7 7 7 7 8 8 4 7
3 15 24 7 9 12 6 12 16 3 4 6 3 17 10 8 14 12 16 18 18 14 8 5 7 9 13 15 16 15 16 17 15 11 8 4 7 4 5 6 6 6 8 7
9 13 9 8 6 12 17 18 21 12 4 3 3 13 7 8 10 11 13 17 10 10 9 8 8 10 10 13 14 16 17 16 14 12 8 6 6 5 5 7 7 8 9 11
12 10 5 2 9 14 17 10 18 7 4 10 3 12 16 5 11 8 17 12 13 8 7 6 6 7 11 12 10 12 13 15 13 15 12 14 7 7 6 7 7 8 12 10
8 2 7 17 23 11 10 4 9 13 14 6 6 3 15 3 7 12 15 8 7 5 5 6 6 6 5 8 10 10 12 14 13 14 14 11 9 5 6 7 11 11 9 10
14 2 2 4 2 13 7 4 3 3 4 6 15 13 27 9 8 7 2 5 3 1 1 0 2 3 3 4 7 10 12 13 13 14 14 15 13 10 8 8 8 8 7 7
12 16 4 4 2 1 1 5 2 2 3 10 6 10 24 4 4 6 6 6 4 4 5 4 5 4 4 6 7 8 11 11 12 14 13 13 12 12 12 11 9 10 7 7
6 6 12 7 15 9 9 11 6 7 7 8 2 11 11 6 3 3 7 7 5 6 5 5 5 4 4 6 6 7 9 9 11 10 11 9 10 8 7 9 8 8 9 9
4 6 2 1 2 2 5 10 7 4 2 1 5 8 10 8 4 4 7 6 6 5 6 6 5 5 4 4 5 6 7 6 8 10 8 9 9 9 9 9 8 7 7 7
3 7 2 2 1 2 4 2 4 4 7 6 5 6 12 1 6 6 6 7 5 3 6 7 6 6 4 4 2 4 5 6 6 7 8 8 9 8 7 8 9 9 8 9
3 5 2 2 4 10 4 3 2 0 3 5 2 8 6 6 5 13 10 8 6 5 6 6 5 5 5 5 4 2 3 4 5 6 6 7 7 8 8 8 8 8 7 9
6 4 4 9 2 2 1 7 10 5 5 2 1 13 0 7 6 9 8 6 5 5 5 5 5 5 6 6 6 4 0 4 5 5 6 7 7 8 8 8 8 8 9 8
3 4 3 4 3 2 3 4 8 7 1 6 4 5 7 7 7 10 8 5 5 4 5 4 5 5 4 4 6 5 5 3 4 5 6 6 7 8 9 9 8 8 8 7
6 3 5 4 2 1 3 1 2 7 6 4 16 10 8 8 7 4 5 5 6 5 5 4 6 6 6 6 6 7 6 4 3 5 6 7 7 8 7 7 8 8 8 8
8 4 2 4 5 6 7 6 7 10 10 10 7 16 11 3 2 1 4 5 5 4 4 5 6 6 6 7 7 8 7 6 2 4 5 5 5 6 7 8 8 7 8 7
3 6 3 5 7 9 10 10 13 14 10 13 16 23 16 3 4 4 3 3 3 3 2 5 7 8 9 9 7 8 7 6 2 4 4 4 4 5 6 6 7 7 8 8
3 4 6 5 6 2 6 10 13 3 6 4 9 3 12 4 7 3 5 3 3 5 5 6 7 7 8 8 9 8 8 6 1 4 4 4 5 5 5 6 7 7 8 8
4 3 3 6 4 3 7 5 1 14 10 10 9 11 12 11 5 13 11 7 9 7 7 7 6 7 9 10 9 9 6 4 3 4 4 4 5 5 6 6 6 6 6 7
11 5 3 3 4 7 8 7 4 4 7 9 11 14 14 10 7 9 13 11 9 6 5 3 4 7 8 10 11 9 7 6 5 4 4 5 6 6 6 6 6 5 7 7
2 7 5 3 3 5 2 5 4 3 5 13 11 15 18 9 4 4 8 5 6 5 6 7 7 7 9 11 10 8 7 6 6 5 3 3 5 7 6 6 7 4 6 8
4 4 6 10 5 5 7 9 4 3 2 9 11 12 14 12 3 4 5 3 3 3 6 7 7 8 9 10 9 8 7 8 6 4 5 6 6 8 8 6 7 8 10 10
6 3 3 4 3 3 9 3 7 1 1 4 8 9 10 8 6 2 3 5 6 6 6 7 6 8 8 9 8 7 9 8 6 5 8 7 6 6 7 11 9 10 12 13
2 8 5 7 2 4 5 9 9 6 5 2 1 2 3 7 7 6 8 3 4 5 7 6 7 6 7 9 9 8 9 8 6 6 7 7 8 8 8 11 11 10 11 11
4 2 4 5 5 8 6 2 5 5 4 5 2 2 5 4 7 6 6 7 6 4 5 6 6 8 8 8 9 7 8 6 5 6 6 6 8 9 8 6 7 8 9 9
5 6 6 4 3 3 4 5 4 3 7 9 9 9 9 8 8 8 8 8 5 4 4 6 7 6 7 7 7 7 7 5 4 4 4 6 7 8 8 7 6 7 5 8
5 7 5 5 3 1 3 5 7 9 8 9 10 9 9 10 10 10 8 6 5 4 3 4 5 5 6 7 6 7 6 4 2 3 4 4 5 6 7 8 9 16 17 21
Wind_Direction
214 183 209 219 221 236 190 223 240 227 202 162 219 243 256 253 250 253 260 253 256 251 264 204 205 203 199 194 181 180 172 170 161 158 156 165 175 169 170 173 180 173 180 177
135 231 227 147 195 236 247 245 251 282 173 185 231 259 260 240 254 225 235 249 247 248 258 225 208 202 201 198 196 182 179 173 176 175 170 158 152 171 173 179 176 189 185 162
212 218 196 213 177 209 229 232 250 246 171 239 329 274 245 242 256 252 247 244 255 234 244 250 226 216 208 203 192 185 183 175 173 166 140 119 109 113 163 189 184 185 211 185
236 267 175 160 237 207 236 224 252 230 192 246 188 278 271 221 242 231 250 240 252 243 248 248 245 236 209 205 184 179 170 167 170 162 166 168 173 164 189 184 173 185 191 194
238 235 215 226 232 170 240 197 220 224 223 237 224 256 269 147 257 254 255 236 226 231 238 252 260 251 217 167 169 165 162 167 164 170 177 178 179 159 154 158 175 187 190 195
248 275 276 264 347 194 134 119 94 90 139 220 226 199 270 214 201 246 185 154 183 223 213 20 31 92 104 136 141 151 159 170 167 177 181 186 185 156 151 162 175 183 183 183
251 241 205 186 208 64 154 147 192 212 181 235 177 176 238 219 215 209 202 150 136 101 96 97 99 114 135 145 146 152 163 171 173 180 183 185 184 174 175 171 175 170 179 188
243 294 206 190 206 185 176 223 171 213 212 222 157 226 241 232 259 221 136 150 133 103 93 78 79 105 127 141 152 156 166 166 173 178 184 184 176 179 180 176 173 182 189 190
279 265 43 83 339 205 173 215 213 98 55 239 202 275 290 201 213 156 157 158 155 115 97 80 59 54 89 137 168 170 171 169 177 184 173 176 172 171 181 176 173 177 175 170
204 285 262 334 145 19 132 311 163 166 194 215 239 262 239 284 187 165 175 171 195 119 74 55 42 33 33 66 153 176 177 183 178 172 178 182 181 182 169 162 178 177 170 166
86 210 271 341 208 190 115 223 347 338 199 190 263 255 230 273 205 185 169 168 163 105 74 63 50 30 32 41 54 107 180 180 184 183 173 170 176 171 163 175 177 178 163 169
203 222 245 235 195 149 26 204 189 222 207 237 296 257 83 276 232 146 158 147 102 83 73 63 51 36 29 26 26 25 97 199 196 183 173 181 164 165 169 176 174 164 175 171
170 212 289 305 358 1 177 191 211 219 106 201 183 264 9 28 83 109 128 118 97 79 56 44 43 41 39 29 23 10 358 265 209 177 176 170 171 172 182 179 169 167 160 166
295 216 206 216 226 104 136 25 299 184 224 194 233 290 1 27 108 90 84 103 95 71 38 18 9 9 11 19 19 6 349 335 215 181 178 171 173 175 175 161 160 164 164 159
13 298 343 293 240 237 251 228 204 222 248 245 287 261 272 171 229 289 89 126 118 93 42 25 13 357 354 2 4 358 338 323 211 176 174 173 159 160 156 154 156 151 161 162
100 308 311 275 265 215 243 232 233 228 223 249 255 266 281 128 303 256 235 139 142 130 63 34 17 358 352 349 2 347 326 321 311 167 160 148 156 154 155 147 150 150 148 142
238 203 346 273 335 302 312 236 223 184 56 314 243 310 336 276 253 344 321 239 109 90 53 28 15 348 335 340 353 332 314 305 128 137 146 150 151 149 147 141 142 145 146 141
246 161 175 251 335 246 241 29 105 99 54 18 359 348 314 283 314 61 23 51 59 44 30 26 351 330 346 345 340 329 328 19 99 119 131 138 137 133 136 135 133 123 133 135
227 208 268 196 211 297 328 28 42 24 50 3 0 357 332 293 129 41 16 35 48 31 15 0 354 356 349 350 341 336 11 31 50 62 120 135 130 129 127 119 116 107 117 113
265 228 195 30 195 227 255 320 298 237 63 343 7 12 6 1 106 28 350 12 29 29 9 2 10 15 11 353 345 355 16 30 33 8 41 91 114 116 104 112 108 85 94 104
359 336 244 238 235 299 330 326 296 133 56 340 22 20 21 50 47 302 322 4 26 24 17 15 26 31 14 356 354 12 12 20 341 20 63 70 78 98 108 93 101 109 110 112
171 145 234 312 200 212 333 358 64 268 57 4 36 25 27 33 38 358 343 24 23 18 19 19 27 35 21 13 5 10 20 346 352 31 70 73 76 94 101 108 112 112 115 115
286 181 189 162 191 175 119 129 162 179 160 184 76 344 45 5 7 5 360 40 20 19 19 17 23 23 27 21 24 14 359 357 359 40 68 77 82 84 107 121 117 117 121 119
293 231 156 74 283 191 187 118 160 189 198 210 209 11 41 359 345 347 354 7 17 48 29 9 23 34 24 14 22 17 357 358 13 44 50 79 91 89 87 98 114 123 126 122
183 130 172 261 283 118 69 64 9 202 38 24 12 20 18 358 2 357 344 350 7 18 17 19 17 27 24 8 13 11 6 360 33 47 51 68 75 82 83 71 84 98 76 123
183 183 172 219 8 96 111 61 4 64 39 18 355 353 20 16 356 346 336 343 347 12 35 39 34 23 16 6 5 7 3 2 22 73 64 77 95 94 97 105 107 106 114 118